TimeEST,TemperatureF,Dew PointF,Humidity,Sea Level PressureIn,VisibilityMPH,Wind Direction,Wind SpeedMPH,Gust SpeedMPH,PrecipitationIn,Events,Conditions,WindDirDegrees,DateUTC
12:52 AM,33.1,25.0,72,29.89,10.0,WNW,3.5,-,N/A,,Overcast,300,2012-12-11 05:52:00
1:52 AM,32.0,24.1,73,29.91,10.0,WNW,6.9,-,N/A,,Overcast,290,2012-12-11 06:52:00
2:52 AM,30.9,21.9,69,29.92,10.0,NW,5.8,-,N/A,,Overcast,310,2012-12-11 07:52:00
3:52 AM,30.9,23.0,72,29.94,10.0,West,3.5,-,N/A,,Overcast,280,2012-12-11 08:52:00
4:52 AM,30.9,23.0,72,29.96,10.0,West,3.5,-,N/A,,Overcast,280,2012-12-11 09:52:00
5:52 AM,30.0,24.1,79,29.97,10.0,WSW,8.1,-,N/A,,Overcast,240,2012-12-11 10:52:00
6:52 AM,28.9,23.0,78,29.99,10.0,SW,3.5,-,N/A,,Overcast,230,2012-12-11 11:52:00
7:52 AM,30.0,24.1,79,30.01,10.0,WSW,4.6,-,N/A,,Overcast,240,2012-12-11 12:52:00
8:47 AM,30.2,24.8,80,30.01,1.5,WSW,6.9,-,0.00,Snow,Light Snow,250,2012-12-11 13:47:00
8:49 AM,30.2,24.8,80,30.01,0.8,WSW,6.9,-,0.00,Snow,Light Snow,250,2012-12-11 13:49:00
8:52 AM,30.0,26.1,85,30.04,0.8,West,6.9,-,0.01,Snow,Light Snow,260,2012-12-11 13:52:00
8:59 AM,30.2,26.6,86,30.02,1.5,WSW,6.9,-,0.00,Snow,Light Snow,250,2012-12-11 13:59:00
9:01 AM,30.2,26.6,86,30.02,3.0,WSW,6.9,-,0.00,Snow,Light Snow,250,2012-12-11 14:01:00
9:16 AM,30.2,26.6,86,30.02,10.0,SW,4.6,-,0.00,,Overcast,220,2012-12-11 14:16:00
9:52 AM,32.0,27.0,82,30.06,10.0,WSW,9.2,-,0.00,,Overcast,240,2012-12-11 14:52:00
10:25 AM,33.8,26.6,75,30.05,10.0,WSW,15.0,-,N/A,,Overcast,250,2012-12-11 15:25:00
10:43 AM,33.8,26.6,75,30.05,10.0,West,11.5,-,N/A,,Mostly Cloudy,260,2012-12-11 15:43:00
10:52 AM,35.1,26.1,70,30.07,10.0,WSW,12.7,-,N/A,,Mostly Cloudy,240,2012-12-11 15:52:00
11:52 AM,33.1,23.0,66,30.08,10.0,WSW,15.0,-,N/A,,Scattered Clouds,250,2012-12-11 16:52:00
12:52 PM,33.1,21.9,64,30.07,10.0,SW,13.8,-,N/A,,Overcast,230,2012-12-11 17:52:00
1:52 PM,34.0,21.0,59,30.09,10.0,WSW,15.0,-,N/A,,Overcast,240,2012-12-11 18:52:00
2:52 PM,33.1,19.0,56,30.09,10.0,SW,16.1,21.9,N/A,,Overcast,230,2012-12-11 19:52:00
3:52 PM,32.0,18.0,56,30.10,10.0,SW,13.8,-,N/A,,Overcast,230,2012-12-11 20:52:00
4:52 PM,32.0,19.0,59,30.12,10.0,SW,6.9,-,N/A,,Overcast,230,2012-12-11 21:52:00
5:52 PM,30.9,19.9,64,30.13,10.0,SW,8.1,-,N/A,,Mostly Cloudy,220,2012-12-11 22:52:00
6:52 PM,28.9,19.9,69,30.14,10.0,SSW,6.9,-,N/A,,Clear,200,2012-12-11 23:52:00
7:52 PM,28.9,21.0,72,30.15,10.0,SSW,8.1,-,N/A,,Clear,210,2012-12-12 00:52:00
8:52 PM,28.9,21.0,72,30.16,10.0,SSW,9.2,-,N/A,,Clear,200,2012-12-12 01:52:00
9:52 PM,28.9,21.0,72,30.17,10.0,SSW,9.2,-,N/A,,Clear,200,2012-12-12 02:52:00
10:52 PM,28.0,21.9,78,30.19,10.0,SSW,6.9,-,N/A,,Clear,210,2012-12-12 03:52:00
11:52 PM,28.0,21.9,78,30.22,10.0,SW,9.2,-,N/A,,Clear,220,2012-12-12 04:52:00